Weather History for Richlands, VA

Change the Weather History Date:

Wednesday, July 24, 2013

  Actual Average (KBLF) Record (KBLF)
Temperature  
Mean Temperature 69 °F 73 °F  
Max Temperature 76 °F 81 °F 91 °F (1987)
Min Temperature 62 °F 65 °F 54 °F (2008)
Degree Days  
Heating Degree Days 0 0  
Month to date heating degree days 0  
Since 1 June heating degree days 22  
Since 1 July heating degree days 0  
Cooling Degree Days 4 8  
Month to date cooling degree days 192  
Year to date cooling degree days 449  
Since 1 June cooling degree days 358  
Growing Degree Days 19 (Base 50)    
Moisture  
Dew Point 65 °F    
Average Humidity 87    
Maximum Humidity 99    
Minimum Humidity 62    
Precipitation  
Precipitation 0.46 in 0.13 in 1.50 in (2007)
Month to date precipitation 3.29  
Year to date precipitation 24.25  
Snow  
Snow 0.00 in - - ()
Month to date snowfall  
Since 1 June snowfall  
Since 1 July snowfall  
Snow Depth -    
Sea Level Pressure  
Sea Level Pressure 29.95 in    
Wind  
Wind Speed 5 mph (NW)    
Max Wind Speed 13 mph    
Max Gust Speed 22 mph    
Visibility 8 miles    
Events Rain , Thunderstorm    
T = Trace of Precipitation, MM = Missing Value Source: NWS Daily Summary

Daily Weather History Graph

Daily Weather History Graph

Search for Another Location

Airport:

Trip Planner

Search our weather history database for the weather conditions in past years. The results will help you decide how hot, cold, wet, or windy it might be!

Date:

Astronomy

Jul. 24, 2013 Rise Set
Actual Time 6:26 AM EDT 8:40 PM EDT
Civil Twilight 5:56 AM EDT 9:10 PM EDT
Nautical Twilight 5:20 AM EDT 9:46 PM EDT
Astronomical Twilight 4:41 AM EDT 10:25 PM EDT
Moon 9:51 PM EDT (7/24) 8:39 AM EDT (7/24)
Length of Visible Light 15h 13m
Length of Day
14h 14m
Waning Gibbous, 95% of the Moon is Illuminated
Jul 24
Waning Gibbous
Jul 29
Last Quarter
Aug 6
New
Aug 14
First Quarter
Aug 20
Full

Hourly Weather History & Observations

Time (EDT) Temp. Dew Point Humidity Pressure Visibility Wind Dir Wind Speed Gust Speed Precip Events Conditions
12:15 AM 69.8 °F 67.6 °F 93% 29.94 in 10.0 mi WSW 6.9 mph - N/A   Scattered Clouds
12:35 AM 69.8 °F 68.0 °F 94% 29.95 in 10.0 mi WSW 9.2 mph - N/A   Overcast
12:55 AM 69.3 °F 68.2 °F 96% 29.95 in 10.0 mi WSW 6.9 mph - N/A   Overcast
1:15 AM 69.4 °F 68.2 °F 96% 29.95 in 10.0 mi WSW 6.9 mph - N/A   Overcast
1:35 AM 69.1 °F 68.2 °F 97% 29.94 in 7.0 mi WSW 9.2 mph - N/A   Overcast
1:55 AM 68.9 °F 68.2 °F 98% 29.92 in 7.0 mi SW 4.6 mph - N/A   Overcast
2:15 AM 68.9 °F 68.0 °F 97% 29.92 in 7.0 mi SSW 3.5 mph - N/A   Overcast
2:35 AM 68.9 °F 68.0 °F 97% 29.91 in 7.0 mi SSW 4.6 mph - N/A   Overcast
2:55 AM 68.9 °F 68.0 °F 97% 29.91 in 5.0 mi SW 4.6 mph - N/A   Overcast
3:15 AM 68.9 °F 68.0 °F 97% 29.91 in 7.0 mi WSW 5.8 mph - N/A   Overcast
3:35 AM 68.9 °F 68.0 °F 97% 29.91 in 7.0 mi WSW 6.9 mph - N/A   Overcast
3:55 AM 68.5 °F 67.5 °F 96% 29.89 in 7.0 mi SSW 5.8 mph - N/A   Overcast
4:15 AM 68.4 °F 67.5 °F 97% 29.90 in 7.0 mi WSW 8.1 mph - N/A   Overcast
4:35 AM 68.4 °F 67.5 °F 97% 29.89 in 7.0 mi WSW 3.5 mph - N/A   Overcast
4:55 AM 68.2 °F 67.3 °F 97% 29.89 in 7.0 mi SW 5.8 mph - N/A   Overcast
5:15 AM 68.2 °F 67.3 °F 97% 29.90 in 7.0 mi SW 3.5 mph - N/A   Overcast
5:35 AM 68.0 °F 66.9 °F 96% 29.91 in 7.0 mi SW 5.8 mph - N/A Thunderstorm Overcast
5:55 AM 68.0 °F 66.7 °F 96% 29.91 in 7.0 mi SW 8.1 mph - N/A   Mostly Cloudy
6:15 AM 68.0 °F 67.1 °F 97% 29.93 in 7.0 mi NNW 3.5 mph - N/A   Overcast
6:35 AM 64.9 °F 63.1 °F 94% 29.94 in 1.8 mi NNW 12.7 mph 21.9 mph 0.29 in Rain , Thunderstorm Heavy Thunderstorms and Rain
6:55 AM 62.8 °F 61.5 °F 96% 29.94 in 5.0 mi West 4.6 mph - 0.46 in Rain Heavy Rain
7:15 AM 63.0 °F 61.9 °F 96% 29.94 in 10.0 mi Calm Calm - N/A   Mostly Cloudy
7:35 AM 62.8 °F 62.6 °F 99% 29.94 in 7.0 mi SSW 3.5 mph - N/A   Mostly Cloudy
7:55 AM 64.2 °F 63.0 °F 96% 29.93 in 10.0 mi Calm Calm - N/A   Mostly Cloudy
8:15 AM 64.9 °F 64.2 °F 98% 29.93 in 10.0 mi SW 3.5 mph - N/A   Overcast
8:35 AM 66.2 °F 65.5 °F 98% 29.94 in 7.0 mi SW 3.5 mph - N/A   Overcast
8:55 AM 65.3 °F 64.9 °F 99% 29.94 in 2.0 mi Calm Calm - N/A   Overcast
9:15 AM 66.9 °F 66.4 °F 98% 29.95 in 5.0 mi SW 3.5 mph - N/A   Overcast
9:35 AM 67.8 °F 66.9 °F 97% 29.94 in 5.0 mi SSW 3.5 mph - N/A   Overcast
9:55 AM 68.9 °F 67.8 °F 96% 29.95 in 7.0 mi South 3.5 mph - N/A   Overcast
10:15 AM 69.6 °F 68.0 °F 95% 29.95 in 7.0 mi Calm Calm - N/A   Overcast
10:35 AM 68.7 °F 68.2 °F 98% 29.96 in 2.0 mi Calm Calm - N/A   Overcast
10:55 AM 68.5 °F 68.0 °F 98% 29.96 in 2.5 mi Calm Calm - N/A   Mostly Cloudy
11:15 AM 69.8 °F 68.0 °F 94% 29.96 in 7.0 mi NNW 4.6 mph - N/A   Mostly Cloudy
11:35 AM 69.8 °F 68.2 °F 95% 29.96 in 7.0 mi NNW 5.8 mph - N/A   Mostly Cloudy
11:55 AM 70.7 °F 67.1 °F 88% 29.96 in 10.0 mi NNW 3.5 mph - N/A   Overcast
12:15 PM 71.8 °F 66.7 °F 84% 29.96 in 10.0 mi Calm Calm - N/A   Mostly Cloudy
12:35 PM 72.5 °F 67.1 °F 83% 29.95 in 10.0 mi North 3.5 mph - N/A   Mostly Cloudy
12:55 PM 72.5 °F 65.7 °F 79% 29.95 in 10.0 mi NNW 6.9 mph - N/A   Scattered Clouds
1:15 PM 73.4 °F 64.4 °F 73% 29.95 in 10.0 mi North 3.5 mph - N/A   Clear
1:35 PM 74.3 °F 64.4 °F 71% 29.95 in 10.0 mi NNW 3.5 mph - N/A   Scattered Clouds
1:55 PM 74.3 °F 63.9 °F 70% 29.95 in 10.0 mi NNW 5.8 mph - N/A   Scattered Clouds
2:15 PM 74.3 °F 63.3 °F 68% 29.95 in 10.0 mi NNW 3.5 mph - N/A   Scattered Clouds
2:35 PM 75.0 °F 64.0 °F 69% 29.96 in 10.0 mi NNW 6.9 mph - N/A   Scattered Clouds
2:55 PM 74.5 °F 63.1 °F 68% 29.95 in 10.0 mi NNW 6.9 mph - N/A   Scattered Clouds
3:15 PM 74.3 °F 63.7 °F 69% 29.95 in 10.0 mi North 5.8 mph - N/A   Overcast
3:35 PM 75.2 °F 62.8 °F 65% 29.95 in 10.0 mi NNW 6.9 mph - N/A   Mostly Cloudy
3:55 PM 74.3 °F 63.3 °F 68% 29.95 in 10.0 mi NNW 6.9 mph - N/A   Scattered Clouds
4:15 PM 73.9 °F 63.1 °F 69% 29.94 in 10.0 mi NNW 5.8 mph - N/A   Mostly Cloudy
4:35 PM 75.2 °F 63.0 °F 66% 29.94 in 10.0 mi NNW 8.1 mph - N/A   Scattered Clouds
4:55 PM 74.8 °F 61.2 °F 62% 29.94 in 10.0 mi NW 5.8 mph - N/A   Scattered Clouds
5:15 PM 76.5 °F 62.8 °F 62% 29.94 in 10.0 mi NNW 5.8 mph - N/A   Scattered Clouds
5:35 PM 74.5 °F 61.0 °F 63% 29.94 in 10.0 mi NW 5.8 mph - N/A   Scattered Clouds
5:55 PM 74.5 °F 62.8 °F 67% 29.94 in 10.0 mi NW 6.9 mph - N/A   Mostly Cloudy
6:15 PM 73.6 °F 63.7 °F 71% 29.94 in 10.0 mi NNW 5.8 mph - N/A   Mostly Cloudy
6:35 PM 72.7 °F 62.2 °F 70% 29.94 in 10.0 mi NW 6.9 mph - N/A   Overcast
6:55 PM 71.8 °F 62.8 °F 73% 29.94 in 10.0 mi NNW 6.9 mph - N/A   Overcast
7:15 PM 71.6 °F 63.7 °F 76% 29.94 in 10.0 mi NNW 6.9 mph - N/A   Overcast
7:35 PM 71.6 °F 63.5 °F 76% 29.95 in 10.0 mi NNW 5.8 mph - N/A   Overcast
7:55 PM 70.7 °F 63.3 °F 77% 29.95 in 10.0 mi NNW 8.1 mph - N/A   Overcast
8:15 PM 69.8 °F 63.9 °F 81% 29.97 in 10.0 mi North 5.8 mph - N/A   Scattered Clouds
8:35 PM 68.4 °F 63.7 °F 85% 29.98 in 10.0 mi North 4.6 mph - N/A   Scattered Clouds
8:55 PM 67.8 °F 63.3 °F 85% 29.98 in 10.0 mi North 4.6 mph - N/A   Mostly Cloudy
9:15 PM 67.1 °F 63.1 °F 87% 29.99 in 10.0 mi North 4.6 mph - N/A   Mostly Cloudy
9:35 PM 66.6 °F 63.0 °F 88% 29.99 in 10.0 mi NNE 4.6 mph - N/A   Mostly Cloudy
9:55 PM 66.2 °F 62.6 °F 88% 29.99 in 10.0 mi North 4.6 mph - N/A   Mostly Cloudy
10:15 PM 65.7 °F 62.8 °F 90% 30.00 in 10.0 mi NE 3.5 mph - N/A   Mostly Cloudy
10:35 PM 65.7 °F 62.6 °F 90% 30.00 in 10.0 mi NNE 4.6 mph - N/A   Overcast
10:55 PM 65.3 °F 62.2 °F 90% 30.01 in 10.0 mi NNE 4.6 mph - N/A   Overcast
11:15 PM 64.6 °F 62.4 °F 93% 30.01 in 10.0 mi NNE 4.6 mph - N/A   Scattered Clouds
11:35 PM 64.2 °F 61.9 °F 92% 30.01 in 10.0 mi NE 3.5 mph - N/A   Mostly Cloudy
11:55 PM 63.7 °F 61.9 °F 94% 30.01 in 10.0 mi NNE 3.5 mph - N/A   Scattered Clouds